• In Czech Republic
  • List of Countries
  • For 7 days
  • Water Temperature
  • Satellite Maps
  • Weather Map
  • Weather Widgets
  • user-avatar
    Login

    Hourly Weather Larne

    Today, 17 December, Sunday

    Time Temperature Precipitation Wind Pressure Humidity
    00:00 +4°C° 0 mm 4 mps 762 mmHg 93%
    01:00 +3°C° 0 mm 5 mps 761 mmHg 94%
    02:00 +3°C° 0 mm 5 mps 761 mmHg 94%
    03:00 +3°C° 0 mm 5 mps 760 mmHg 94%
    04:00 +4°C° 0.3 mm 6 mps 759 mmHg 94%
    05:00 +5°C° 0.3 mm 7 mps 759 mmHg 94%
    06:00 +5°C° 0.3 mm 7 mps 758 mmHg 94%
    07:00 +6°C° 2.5 mm 7 mps 758 mmHg 94%
    08:00 +6°C° 2.5 mm 7 mps 757 mmHg 94%
    09:00 +8°C° 2.5 mm 7 mps 757 mmHg 94%
    10:00 +8°C° 0.2 mm 7 mps 757 mmHg 92%
    11:00 +9°C° 0.2 mm 7 mps 758 mmHg 91%
    12:00 +9°C° 0.2 mm 7 mps 758 mmHg 89%
    13:00 +8°C° 0 mm 7 mps 759 mmHg 86%
    14:00 +8°C° 0 mm 7 mps 759 mmHg 83%
    15:00 +6°C° 0 mm 8 mps 760 mmHg 79%
    16:00 +5°C° 0 mm 7 mps 760 mmHg 80%
    17:00 +5°C° 0 mm 6 mps 761 mmHg 81%
    18:00 +5°C° 0 mm 5 mps 762 mmHg 81%
    19:00 +5°C° 0 mm 5 mps 762 mmHg 83%
    20:00 +5°C° 0 mm 5 mps 763 mmHg 84%
    21:00 +5°C° 0 mm 4 mps 764 mmHg 86%
    22:00 +5°C° 0 mm 4 mps 764 mmHg 87%
    23:00 +4°C° 0 mm 4 mps 764 mmHg 88%

    Tomorrow, 18 December, Monday

    Time Temperature Precipitation Wind Pressure Humidity
    00:00 +4°C° 0 mm 4 mps 765 mmHg 89%
    01:00 +4°C° 0 mm 4 mps 765 mmHg 89%
    02:00 +4°C° 0 mm 3 mps 766 mmHg 89%
    03:00 +4°C° 0 mm 3 mps 766 mmHg 90%
    04:00 +4°C° 0 mm 3 mps 766 mmHg 90%
    05:00 +5°C° 0 mm 2 mps 766 mmHg 90%
    06:00 +4°C° 0 mm 2 mps 767 mmHg 91%
    07:00 +3°C° 0 mm 3 mps 767 mmHg 91%
    08:00 +3°C° 0 mm 3 mps 767 mmHg 91%
    09:00 +3°C° 0 mm 3 mps 767 mmHg 91%
    10:00 +4°C° 0 mm 3 mps 768 mmHg 89%
    11:00 +5°C° 0 mm 4 mps 768 mmHg 86%
    12:00 +6°C° 0 mm 4 mps 768 mmHg 83%
    13:00 +6°C° 0 mm 4 mps 768 mmHg 83%
    14:00 +6°C° 0 mm 4 mps 768 mmHg 83%
    15:00 +6°C° 0 mm 4 mps 767 mmHg 83%
    16:00 +5°C° 0 mm 4 mps 768 mmHg 85%
    17:00 +5°C° 0 mm 5 mps 768 mmHg 86%
    18:00 +5°C° 0 mm 5 mps 768 mmHg 88%
    19:00 +6°C° 0 mm 5 mps 768 mmHg 90%
    20:00 +6°C° 0 mm 5 mps 768 mmHg 92%
    21:00 +6°C° 0 mm 5 mps 768 mmHg 94%
    22:00 +7°C° 0 mm 5 mps 768 mmHg 95%
    23:00 +7°C° 0 mm 5 mps 768 mmHg 95%

    Day after tomorrow, 19 December, Tuesday

    Time Temperature Precipitation Wind Pressure Humidity
    00:00 +8°C° 0 mm 5 mps 768 mmHg 95%
    01:00 +8°C° 0 mm 5 mps 768 mmHg 96%
    02:00 +8°C° 0 mm 5 mps 768 mmHg 96%
    03:00 +8°C° 0 mm 5 mps 768 mmHg 96%
    04:00 +9°C° 0 mm 5 mps 767 mmHg 96%
    05:00 +9°C° 0 mm 5 mps 767 mmHg 96%
    06:00 +9°C° 0 mm 5 mps 767 mmHg 96%
    07:00 +10°C° 0 mm 5 mps 767 mmHg 96%
    08:00 +10°C° 0 mm 5 mps 767 mmHg 96%
    09:00 +10°C° 0 mm 6 mps 768 mmHg 95%
    10:00 +10°C° 0 mm 6 mps 768 mmHg 94%
    11:00 +10°C° 0 mm 6 mps 768 mmHg 93%
    12:00 +11°C° 0 mm 6 mps 768 mmHg 92%
    13:00 +11°C° 0 mm 6 mps 767 mmHg 92%
    14:00 +11°C° 0 mm 6 mps 767 mmHg 92%
    15:00 +11°C° 0 mm 6 mps 767 mmHg 92%
    16:00 +11°C° 0 mm 6 mps 767 mmHg 93%
    17:00 +11°C° 0 mm 6 mps 766 mmHg 93%
    18:00 +11°C° 0 mm 6 mps 766 mmHg 93%
    19:00 +11°C° 0 mm 6 mps 766 mmHg 92%
    20:00 +11°C° 0 mm 7 mps 766 mmHg 91%
    21:00 +11°C° 0 mm 7 mps 766 mmHg 91%
    22:00 +11°C° 0.1 mm 7 mps 766 mmHg 91%
    23:00 +11°C° 0.1 mm 7 mps 766 mmHg 91%

    20 December, Wednesday

    Time Temperature Precipitation Wind Pressure Humidity
    00:00 +11°C° 0.1 mm 7 mps 766 mmHg 91%
    01:00 +11°C° 0.2 mm 6 mps 766 mmHg 92%
    02:00 +11°C° 0.2 mm 6 mps 767 mmHg 93%
    03:00 +12°C° 0.2 mm 5 mps 767 mmHg 94%
    04:00 +10°C° 0 mm 5 mps 767 mmHg 94%
    05:00 +10°C° 0 mm 4 mps 767 mmHg 95%
    06:00 +9°C° 0 mm 3 mps 768 mmHg 95%
    07:00 +9°C° 0 mm 3 mps 768 mmHg 95%
    08:00 +9°C° 0 mm 2 mps 769 mmHg 95%
    09:00 +8°C° 0 mm 2 mps 769 mmHg 94%
    10:00 +9°C° 0 mm 2 mps 769 mmHg 92%
    11:00 +10°C° 0 mm 1 mps 770 mmHg 91%
    12:00 +10°C° 0 mm 1 mps 770 mmHg 89%
    13:00 +10°C° 0 mm 1 mps 770 mmHg 89%
    14:00 +10°C° 0 mm 1 mps 770 mmHg 89%
    15:00 +10°C° 0 mm 1 mps 769 mmHg 89%
    16:00 +10°C° 0 mm 1 mps 769 mmHg 88%
    17:00 +9°C° 0 mm 1 mps 769 mmHg 88%
    18:00 +8°C° 0 mm 0 mps 770 mmHg 88%
    19:00 +8°C° 0 mm 0 mps 770 mmHg 87%
    20:00 +8°C° 0 mm 0 mps 770 mmHg 87%
    21:00 +8°C° 0 mm 0 mps 770 mmHg 87%
    22:00 +8°C° 0.1 mm 0 mps 770 mmHg 87%
    23:00 +9°C° 0.1 mm 1 mps 769 mmHg 87%

    21 December, Thursday

    Time Temperature Precipitation Wind Pressure Humidity
    00:00 +9°C° 0.1 mm 1 mps 769 mmHg 87%
    01:00 +9°C° 0.4 mm 1 mps 769 mmHg 89%
    02:00 +9°C° 0.4 mm 1 mps 769 mmHg 90%
    03:00 +8°C° 0.4 mm 1 mps 768 mmHg 91%
    04:00 +7°C° 0.8 mm 2 mps 768 mmHg 92%
    05:00 +7°C° 0.8 mm 2 mps 768 mmHg 92%
    06:00 +7°C° 0.8 mm 2 mps 768 mmHg 93%
    07:00 +7°C° 0.5 mm 2 mps 769 mmHg 93%
    08:00 +7°C° 0.5 mm 2 mps 769 mmHg 94%
    09:00 +7°C° 0.5 mm 3 mps 769 mmHg 94%
    10:00 +7°C° 0.3 mm 3 mps 770 mmHg 93%
    11:00 +6°C° 0.3 mm 4 mps 770 mmHg 92%
    12:00 +7°C° 0.3 mm 4 mps 770 mmHg 91%
    13:00 +7°C° 0.1 mm 5 mps 771 mmHg 89%
    14:00 +6°C° 0.1 mm 5 mps 771 mmHg 86%
    15:00 +6°C° 0.1 mm 5 mps 771 mmHg 84%
    16:00 +6°C° 0 mm 5 mps 772 mmHg 84%
    17:00 +5°C° 0 mm 5 mps 773 mmHg 83%
    18:00 +5°C° 0 mm 5 mps 774 mmHg 83%
    19:00 +3°C° 0 mm 5 mps 774 mmHg 83%
    20:00 +4°C° 0 mm 4 mps 775 mmHg 84%
    21:00 +4°C° 0 mm 4 mps 776 mmHg 84%
    22:00 +4°C° 0 mm 4 mps 776 mmHg 85%
    23:00 +4°C° 0 mm 4 mps 776 mmHg 85%

    22 December, Friday

    Time Temperature Precipitation Wind Pressure Humidity
    00:00 +4°C° 0 mm 4 mps 776 mmHg 86%
    01:00 +3°C° 0 mm 4 mps 777 mmHg 87%
    02:00 +3°C° 0 mm 4 mps 777 mmHg 87%
    03:00 +3°C° 0 mm 4 mps 777 mmHg 88%
    04:00 +3°C° 0 mm 4 mps 777 mmHg 88%
    05:00 +2°C° 0 mm 5 mps 777 mmHg 88%
    06:00 +2°C° 0 mm 5 mps 777 mmHg 88%
    07:00 +2°C° 0 mm 5 mps 777 mmHg 88%
    08:00 +3°C° 0 mm 4 mps 778 mmHg 89%
    09:00 +3°C° 0 mm 4 mps 778 mmHg 90%
    10:00 +3°C° 0 mm 4 mps 778 mmHg 87%
    11:00 +4°C° 0 mm 4 mps 777 mmHg 84%
    12:00 +5°C° 0 mm 5 mps 777 mmHg 82%
    13:00 +4°C° 0 mm 4 mps 777 mmHg 81%
    14:00 +4°C° 0 mm 4 mps 777 mmHg 81%
    15:00 +4°C° 0 mm 4 mps 777 mmHg 81%
    16:00 +4°C° 0 mm 4 mps 776 mmHg 83%
    17:00 +2°C° 0 mm 5 mps 776 mmHg 85%
    18:00 +2°C° 0 mm 5 mps 776 mmHg 87%
    19:00 +2°C° 0 mm 5 mps 776 mmHg 89%
    20:00 +2°C° 0 mm 5 mps 776 mmHg 91%
    21:00 +2°C° 0 mm 6 mps 775 mmHg 93%
    22:00 +3°C° 0 mm 6 mps 775 mmHg 92%
    23:00 +4°C° 0 mm 6 mps 774 mmHg 92%
    Show more